sat.trackr.live / text

‹ back to catalog

QIANFAN-13

NORAD 60391 · 2024-140N

PAYLOAD ACTIVE UNKNOWN

§ Identity

Operator
Country
PRC
Launch date
2024-08-06
Launch site
TAISC
Launch vehicle
Mass (kg)
RCS (m²)

External: N2YO · Heavens-Above · Gunter

§ Orbital elements

Epoch: 2026-05-25T04:12:31.106592Z

Period
106.59 min
Inclination
88.9709°
Eccentricity
0.0015025
Mean motion
13.51008288 rev/d
Perigee alt
1,057.4 km
Apogee alt
1,079.7 km
Semi-major
7,446.7 km
B*
1.1616e-4
RAAN
282.4449°
Arg perigee
97.5677°
Mean anomaly
262.7182°
Rev number
8,933

§ Raw data

QIANFAN-131 60391U 24140N   26145.17536003  .00000087  00000+0  11616-3 0  99952 60391  88.9709 282.4449 0015025  97.5677 262.7182 13.51008288 89336

JSON: /api/v1/satellites/60391 · /tle

For live sub-satellite position, see the globe view (requires WebGL).

§ Visibility from observer

Set your observer location to see the next 7 days of passes ≥ 10°. The values pass through the URL so the page stays shareable.

No JS? Fill the form by hand. The geolocation button needs JavaScript.